Time,TemperatureF,DewpointF,PressureIn,WindDirection,WindDirectionDegrees,WindSpeedMPH,WindSpeedGustMPH,Humidity,HourlyPrecipIn,Conditions,Clouds,dailyrainin,SoftwareType,DateUTC
2013-02-15 00:03:00,53.2,41.3,30.19,SSW,203,0.0,0.0,64,0.00,,,0.00,WUHU216HW,2013-02-15 08:03:00,
2013-02-15 00:09:00,53.2,40.9,30.19,SSW,203,0.0,0.0,63,0.00,,,0.00,WUHU216HW,2013-02-15 08:09:00,
2013-02-15 00:14:00,53.2,40.9,30.19,SSW,203,0.0,0.0,63,0.00,,,0.00,WUHU216HW,2013-02-15 08:14:00,
2013-02-15 00:19:00,52.8,40.5,30.19,SSW,203,0.0,0.0,63,0.00,,,0.00,WUHU216HW,2013-02-15 08:19:00,
2013-02-15 00:24:00,52.8,40.5,30.19,SSW,203,0.0,0.0,63,0.00,,,0.00,WUHU216HW,2013-02-15 08:24:00,
2013-02-15 00:29:00,52.8,40.5,30.19,SSW,203,0.0,0.0,63,0.00,,,0.00,WUHU216HW,2013-02-15 08:29:00,
2013-02-15 00:34:00,52.8,40.1,30.19,SSW,203,0.0,0.0,62,0.00,,,0.00,WUHU216HW,2013-02-15 08:34:00,
2013-02-15 00:39:00,52.8,40.1,30.19,SE,135,0.4,0.4,62,0.00,,,0.00,WUHU216HW,2013-02-15 08:39:00,
2013-02-15 00:44:00,52.8,40.1,30.19,ESE,113,0.0,0.4,62,0.00,,,0.00,WUHU216HW,2013-02-15 08:44:00,
2013-02-15 00:50:00,52.8,40.1,30.19,ESE,113,0.0,0.4,62,0.00,,,0.00,WUHU216HW,2013-02-15 08:50:00,
2013-02-15 00:55:00,52.8,40.1,30.19,East,90,0.0,0.0,62,0.00,,,0.00,WUHU216HW,2013-02-15 08:55:00,
2013-02-15 01:00:00,52.8,39.7,30.19,East,90,0.0,0.0,61,0.00,,,0.00,WUHU216HW,2013-02-15 09:00:00,
2013-02-15 01:05:00,52.8,39.7,30.19,East,90,0.0,0.0,61,0.00,,,0.00,WUHU216HW,2013-02-15 09:05:00,
2013-02-15 01:10:00,53.2,40.1,30.19,ESE,113,0.0,2.9,61,0.00,,,0.00,WUHU216HW,2013-02-15 09:10:00,
2013-02-15 01:15:00,53.2,39.7,30.18,ESE,113,4.0,4.0,60,0.00,,,0.00,WUHU216HW,2013-02-15 09:15:00,
2013-02-15 01:20:00,53.4,39.4,30.18,ENE,68,0.0,4.0,59,0.00,,,0.00,WUHU216HW,2013-02-15 09:20:00,
2013-02-15 01:25:00,53.7,39.3,30.19,ESE,113,0.0,0.0,58,0.00,,,0.00,WUHU216HW,2013-02-15 09:25:00,
2013-02-15 01:30:00,53.9,39.4,30.19,ESE,113,0.0,2.2,58,0.00,,,0.00,WUHU216HW,2013-02-15 09:30:00,
2013-02-15 01:36:00,53.9,39.4,30.19,ENE,68,0.0,2.4,58,0.00,,,0.00,WUHU216HW,2013-02-15 09:36:00,
2013-02-15 01:41:00,54.1,39.1,30.19,ESE,113,0.0,2.4,57,0.00,,,0.00,WUHU216HW,2013-02-15 09:41:00,
2013-02-15 01:46:00,54.3,39.3,30.19,SE,135,0.0,0.0,57,0.00,,,0.00,WUHU216HW,2013-02-15 09:46:00,
2013-02-15 01:51:00,54.1,39.6,30.19,SSE,158,0.0,3.5,58,0.00,,,0.00,WUHU216HW,2013-02-15 09:51:00,
2013-02-15 01:56:00,53.6,39.6,30.19,SSE,158,0.0,3.5,59,0.00,,,0.00,WUHU216HW,2013-02-15 09:56:00,
2013-02-15 02:01:00,53.2,39.7,30.19,SSE,158,0.0,0.0,60,0.00,,,0.00,WUHU216HW,2013-02-15 10:01:00,
2013-02-15 02:06:00,52.7,40.0,30.19,SSE,158,0.0,0.0,62,0.00,,,0.00,WUHU216HW,2013-02-15 10:06:00,
2013-02-15 02:11:00,52.3,40.0,30.19,SSE,158,0.0,0.0,63,0.00,,,0.00,WUHU216HW,2013-02-15 10:11:00,
2013-02-15 02:16:00,52.3,40.0,30.19,SSE,158,0.0,0.0,63,0.00,,,0.00,WUHU216HW,2013-02-15 10:16:00,
2013-02-15 02:21:00,51.9,40.1,30.19,SSE,158,0.0,0.0,64,0.00,,,0.00,WUHU216HW,2013-02-15 10:21:00,
2013-02-15 02:26:00,51.6,40.1,30.19,SSE,158,0.0,0.0,65,0.00,,,0.00,WUHU216HW,2013-02-15 10:26:00,
2013-02-15 02:31:00,51.4,40.0,30.19,SSE,158,0.0,0.0,65,0.00,,,0.00,WUHU216HW,2013-02-15 10:31:00,
2013-02-15 02:36:00,51.2,40.2,30.19,SSE,158,0.0,0.0,66,0.00,,,0.00,WUHU216HW,2013-02-15 10:36:00,
2013-02-15 02:41:00,50.9,39.9,30.19,SSE,158,0.0,0.0,66,0.00,,,0.00,WUHU216HW,2013-02-15 10:41:00,
2013-02-15 02:46:00,50.7,39.3,30.19,ESE,113,2.2,3.5,65,0.00,,,0.00,WUHU216HW,2013-02-15 10:46:00,
2013-02-15 02:51:00,50.9,38.6,30.19,East,90,1.1,3.5,63,0.00,,,0.00,WUHU216HW,2013-02-15 10:51:00,
2013-02-15 02:56:00,51.4,38.3,30.19,ESE,113,0.0,2.2,61,0.00,,,0.00,WUHU216HW,2013-02-15 10:56:00,
2013-02-15 03:02:00,51.6,38.1,30.18,ENE,68,0.0,5.3,60,0.00,,,0.00,WUHU216HW,2013-02-15 11:02:00,
2013-02-15 03:07:00,52.1,37.7,30.18,ESE,113,0.4,5.3,58,0.00,,,0.00,WUHU216HW,2013-02-15 11:07:00,
2013-02-15 03:12:00,52.8,37.9,30.18,ESE,113,7.8,7.8,57,0.00,,,0.00,WUHU216HW,2013-02-15 11:12:00,
2013-02-15 03:17:00,53.2,37.8,30.18,NNE,23,3.5,7.8,56,0.00,,,0.00,WUHU216HW,2013-02-15 11:17:00,
2013-02-15 03:22:00,53.4,37.5,30.18,ESE,113,5.8,11.1,55,0.00,,,0.00,WUHU216HW,2013-02-15 11:22:00,
2013-02-15 03:27:00,53.7,37.4,30.18,ESE,113,4.4,11.1,54,0.00,,,0.00,WUHU216HW,2013-02-15 11:27:00,
2013-02-15 03:32:00,53.9,37.1,30.17,ENE,68,1.3,4.4,53,0.00,,,0.00,WUHU216HW,2013-02-15 11:32:00,
2013-02-15 03:37:00,54.1,37.3,30.17,East,90,5.5,5.5,53,0.00,,,0.00,WUHU216HW,2013-02-15 11:37:00,
2013-02-15 03:42:00,54.3,37.0,30.17,ENE,68,2.0,5.5,52,0.00,,,0.00,WUHU216HW,2013-02-15 11:42:00,
2013-02-15 03:47:00,54.5,37.1,30.18,East,90,0.8,2.0,52,0.00,,,0.00,WUHU216HW,2013-02-15 11:47:00,
2013-02-15 03:52:00,54.5,37.1,30.18,East,90,2.6,6.9,52,0.00,,,0.00,WUHU216HW,2013-02-15 11:52:00,
2013-02-15 03:57:00,54.6,37.3,30.17,ENE,68,2.6,9.1,52,0.00,,,0.00,WUHU216HW,2013-02-15 11:57:00,
2013-02-15 04:02:00,54.8,37.4,30.18,NE,45,3.5,9.1,52,0.00,,,0.00,WUHU216HW,2013-02-15 12:02:00,
2013-02-15 04:07:00,55.0,37.6,30.18,ENE,68,5.1,6.2,52,0.00,,,0.00,WUHU216HW,2013-02-15 12:07:00,
2013-02-15 04:12:00,55.0,37.1,30.18,NE,45,7.8,7.8,51,0.00,,,0.00,WUHU216HW,2013-02-15 12:12:00,
2013-02-15 04:17:00,55.2,37.3,30.18,East,90,2.9,7.8,51,0.00,,,0.00,WUHU216HW,2013-02-15 12:17:00,
2013-02-15 04:22:00,55.2,37.3,30.18,East,90,1.1,3.5,51,0.00,,,0.00,WUHU216HW,2013-02-15 12:22:00,
2013-02-15 04:27:00,55.2,37.3,30.18,East,90,0.2,3.5,51,0.00,,,0.00,WUHU216HW,2013-02-15 12:27:00,
2013-02-15 04:32:00,55.2,37.3,30.18,ESE,113,4.4,4.4,51,0.00,,,0.00,WUHU216HW,2013-02-15 12:32:00,
2013-02-15 04:38:00,55.2,37.3,30.18,East,90,13.6,13.6,51,0.00,,,0.00,WUHU216HW,2013-02-15 12:38:00,
2013-02-15 04:43:00,55.4,37.5,30.18,East,90,12.7,13.6,51,0.00,,,0.00,WUHU216HW,2013-02-15 12:43:00,
2013-02-15 04:48:00,55.5,37.6,30.17,ESE,113,6.9,13.6,51,0.00,,,0.00,WUHU216HW,2013-02-15 12:48:00,
2013-02-15 04:53:00,55.7,37.4,30.18,SSE,158,5.3,6.9,50,0.00,,,0.00,WUHU216HW,2013-02-15 12:53:00,
2013-02-15 04:58:00,55.7,37.8,30.18,East,90,8.7,8.7,51,0.00,,,0.00,WUHU216HW,2013-02-15 12:58:00,
2013-02-15 05:03:00,55.9,37.8,30.18,East,90,4.9,8.7,51,0.00,,,0.00,WUHU216HW,2013-02-15 13:03:00,
2013-02-15 05:08:00,55.7,37.8,30.18,ESE,113,0.4,6.9,51,0.00,,,0.00,WUHU216HW,2013-02-15 13:08:00,
2013-02-15 05:13:00,55.7,37.4,30.18,East,90,0.0,6.9,50,0.00,,,0.00,WUHU216HW,2013-02-15 13:13:00,
2013-02-15 05:18:00,55.7,37.4,30.18,East,90,4.0,4.9,50,0.00,,,0.00,WUHU216HW,2013-02-15 13:18:00,
2013-02-15 05:23:00,55.7,37.4,30.18,East,90,5.1,6.9,50,0.00,,,0.00,WUHU216HW,2013-02-15 13:23:00,
2013-02-15 05:28:00,55.9,37.5,30.18,East,90,1.1,6.9,50,0.00,,,0.00,WUHU216HW,2013-02-15 13:28:00,
2013-02-15 05:33:00,55.9,37.5,30.18,ENE,68,3.8,5.1,50,0.00,,,0.00,WUHU216HW,2013-02-15 13:33:00,
2013-02-15 05:38:00,55.9,37.5,30.18,ESE,113,2.0,8.2,50,0.00,,,0.00,WUHU216HW,2013-02-15 13:38:00,
2013-02-15 05:43:00,55.9,37.0,30.18,NNE,23,0.0,8.2,49,0.00,,,0.00,WUHU216HW,2013-02-15 13:43:00,
2013-02-15 05:48:00,55.9,37.5,30.18,NE,45,2.0,9.1,50,0.00,,,0.00,WUHU216HW,2013-02-15 13:48:00,
2013-02-15 05:53:00,55.9,37.0,30.19,East,90,8.0,9.1,49,0.00,,,0.00,WUHU216HW,2013-02-15 13:53:00,
2013-02-15 05:58:00,55.9,37.0,30.19,ENE,68,0.0,8.0,49,0.00,,,0.00,WUHU216HW,2013-02-15 13:58:00,
2013-02-15 06:03:00,55.9,37.5,30.19,East,90,0.0,8.0,50,0.00,,,0.00,WUHU216HW,2013-02-15 14:03:00,
2013-02-15 06:08:00,55.7,36.8,30.19,ENE,68,3.3,3.3,49,0.00,,,0.00,WUHU216HW,2013-02-15 14:08:00,
2013-02-15 06:13:00,55.7,36.8,30.19,East,90,2.9,3.3,49,0.00,,,0.00,WUHU216HW,2013-02-15 14:13:00,
2013-02-15 06:18:00,55.7,37.4,30.19,ESE,113,0.0,3.3,50,0.00,,,0.00,WUHU216HW,2013-02-15 14:18:00,
2013-02-15 06:23:00,55.5,36.6,30.19,SE,135,4.4,4.4,49,0.00,,,0.00,WUHU216HW,2013-02-15 14:23:00,
2013-02-15 06:28:00,55.5,36.6,30.19,East,90,0.0,4.4,49,0.00,,,0.00,WUHU216HW,2013-02-15 14:28:00,
2013-02-15 06:33:00,55.5,36.6,30.19,NNE,23,6.4,6.4,49,0.00,,,0.00,WUHU216HW,2013-02-15 14:33:00,
2013-02-15 06:38:00,55.5,36.6,30.20,ESE,113,6.0,6.4,49,0.00,,,0.00,WUHU216HW,2013-02-15 14:38:00,
2013-02-15 06:43:00,55.5,36.6,30.20,ENE,68,2.4,6.4,49,0.00,,,0.00,WUHU216HW,2013-02-15 14:43:00,
2013-02-15 06:48:00,55.5,36.6,30.20,NNE,23,3.5,6.0,49,0.00,,,0.00,WUHU216HW,2013-02-15 14:48:00,
2013-02-15 06:53:00,55.5,36.6,30.20,East,90,0.8,3.5,49,0.00,,,0.00,WUHU216HW,2013-02-15 14:53:00,
2013-02-15 06:58:00,55.5,36.0,30.20,ESE,113,5.8,5.8,48,0.00,,,0.00,WUHU216HW,2013-02-15 14:58:00,
2013-02-15 07:03:00,55.7,36.2,30.21,ENE,68,1.5,5.8,48,0.00,,,0.00,WUHU216HW,2013-02-15 15:03:00,
2013-02-15 07:08:00,55.7,36.2,30.20,ESE,113,7.3,7.3,48,0.00,,,0.00,WUHU216HW,2013-02-15 15:08:00,
2013-02-15 07:13:00,55.7,36.2,30.21,NE,45,3.5,7.3,48,0.00,,,0.00,WUHU216HW,2013-02-15 15:13:00,
2013-02-15 07:18:00,55.7,36.2,30.21,ESE,113,0.0,7.3,48,0.00,,,0.00,WUHU216HW,2013-02-15 15:18:00,
2013-02-15 07:23:00,55.7,36.2,30.21,ESE,113,0.0,0.4,48,0.00,,,0.00,WUHU216HW,2013-02-15 15:23:00,
2013-02-15 07:28:00,55.7,36.2,30.21,ESE,113,0.0,2.9,48,0.00,,,0.00,WUHU216HW,2013-02-15 15:28:00,
2013-02-15 07:33:00,55.7,36.2,30.21,East,90,1.3,3.3,48,0.00,,,0.00,WUHU216HW,2013-02-15 15:33:00,
2013-02-15 07:38:00,55.7,36.2,30.21,ESE,113,1.3,3.3,48,0.00,,,0.00,WUHU216HW,2013-02-15 15:38:00,
2013-02-15 07:43:00,55.9,36.4,30.21,East,90,7.1,7.1,48,0.00,,,0.00,WUHU216HW,2013-02-15 15:43:00,
2013-02-15 07:49:00,55.9,35.8,30.22,ESE,113,0.0,7.1,47,0.00,,,0.00,WUHU216HW,2013-02-15 15:49:00,
2013-02-15 07:54:00,55.9,35.8,30.22,SSE,158,0.0,4.4,47,0.00,,,0.00,WUHU216HW,2013-02-15 15:54:00,
2013-02-15 07:59:00,56.1,36.0,30.22,ESE,113,5.8,5.8,47,0.00,,,0.00,WUHU216HW,2013-02-15 15:59:00,
2013-02-15 08:04:00,56.1,36.0,30.22,East,90,5.5,5.8,47,0.00,,,0.00,WUHU216HW,2013-02-15 16:04:00,
2013-02-15 08:09:00,56.3,36.2,30.22,North,0,0.0,5.8,47,0.00,,,0.00,WUHU216HW,2013-02-15 16:09:00,
2013-02-15 08:14:00,56.4,36.4,30.22,ESE,113,3.3,3.3,47,0.00,,,0.00,WUHU216HW,2013-02-15 16:14:00,
2013-02-15 08:19:00,56.4,36.4,30.22,SE,135,9.8,9.8,47,0.00,,,0.00,WUHU216HW,2013-02-15 16:19:00,
2013-02-15 08:24:00,56.8,36.7,30.22,East,90,0.8,9.8,47,0.00,,,0.00,WUHU216HW,2013-02-15 16:24:00,
2013-02-15 08:29:00,56.8,36.7,30.22,ESE,113,2.0,4.0,47,0.00,,,0.00,WUHU216HW,2013-02-15 16:29:00,
2013-02-15 08:34:00,57.0,36.9,30.22,East,90,0.0,2.0,47,0.00,,,0.00,WUHU216HW,2013-02-15 16:34:00,
2013-02-15 08:39:00,57.0,37.2,30.22,East,90,5.3,5.3,47,0.00,,,0.00,WUHU216HW,2013-02-15 16:39:00,
2013-02-15 08:44:00,57.3,37.2,30.23,SE,135,1.1,5.3,47,0.00,,,0.00,WUHU216HW,2013-02-15 16:44:00,
2013-02-15 08:49:00,57.5,37.4,30.23,ESE,113,0.0,5.3,47,0.00,,,0.00,WUHU216HW,2013-02-15 16:49:00,
2013-02-15 08:54:00,57.7,37.5,30.23,East,90,1.1,3.8,47,0.00,,,0.00,WUHU216HW,2013-02-15 16:54:00,
2013-02-15 08:59:00,57.9,37.7,30.23,SE,135,0.0,4.0,47,0.00,,,0.00,WUHU216HW,2013-02-15 16:59:00,
2013-02-15 09:04:00,57.9,37.7,30.23,East,90,2.2,4.0,47,0.00,,,0.00,WUHU216HW,2013-02-15 17:04:00,
2013-02-15 09:09:00,58.2,38.0,30.23,East,90,4.6,4.6,47,0.00,,,0.00,WUHU216HW,2013-02-15 17:09:00,
2013-02-15 09:14:00,58.4,38.2,30.24,ESE,113,1.5,4.6,47,0.00,,,0.00,WUHU216HW,2013-02-15 17:14:00,
2013-02-15 09:20:00,58.8,37.9,30.24,SSE,158,0.0,4.6,46,0.00,,,0.00,WUHU216HW,2013-02-15 17:20:00,
2013-02-15 09:25:00,58.8,37.9,30.24,ESE,113,1.7,1.7,46,0.00,,,0.00,WUHU216HW,2013-02-15 17:25:00,
2013-02-15 09:30:00,59.3,38.4,30.24,ESE,113,0.2,1.7,46,0.00,,,0.00,WUHU216HW,2013-02-15 17:30:00,
2013-02-15 09:35:00,59.5,38.6,30.24,SSE,158,3.5,3.5,46,0.00,,,0.00,WUHU216HW,2013-02-15 17:35:00,
2013-02-15 09:40:00,59.7,38.8,30.24,SE,135,0.0,3.5,46,0.00,,,0.00,WUHU216HW,2013-02-15 17:40:00,
2013-02-15 09:45:00,60.0,39.7,30.24,ESE,113,0.8,3.5,47,0.00,,,0.00,WUHU216HW,2013-02-15 17:45:00,
2013-02-15 09:50:00,60.4,39.4,30.24,South,180,0.0,1.3,46,0.00,,,0.00,WUHU216HW,2013-02-15 17:50:00,
2013-02-15 09:55:00,60.6,39.6,30.24,SSE,158,5.5,5.5,46,0.00,,,0.00,WUHU216HW,2013-02-15 17:55:00,
2013-02-15 10:00:00,60.6,39.6,30.24,SSE,158,0.0,5.5,46,0.00,,,0.00,WUHU216HW,2013-02-15 18:00:00,
2013-02-15 10:05:00,61.1,40.1,30.24,SE,135,2.2,2.2,46,0.00,,,0.00,WUHU216HW,2013-02-15 18:05:00,
2013-02-15 10:10:00,61.3,40.2,30.24,SE,135,0.0,2.2,46,0.00,,,0.00,WUHU216HW,2013-02-15 18:10:00,
2013-02-15 10:15:00,61.5,40.4,30.24,ESE,113,5.3,5.3,46,0.00,,,0.00,WUHU216HW,2013-02-15 18:15:00,
2013-02-15 10:20:00,62.2,40.4,30.25,ESE,113,1.5,5.3,45,0.00,,,0.00,WUHU216HW,2013-02-15 18:20:00,
2013-02-15 10:25:00,62.4,40.6,30.25,South,180,0.0,4.4,45,0.00,,,0.00,WUHU216HW,2013-02-15 18:25:00,
2013-02-15 10:30:00,62.7,40.9,30.25,East,90,0.0,2.6,45,0.00,,,0.00,WUHU216HW,2013-02-15 18:30:00,
2013-02-15 10:35:00,62.9,40.5,30.25,East,90,6.7,6.7,44,0.00,,,0.00,WUHU216HW,2013-02-15 18:35:00,
2013-02-15 10:40:00,63.3,40.8,30.25,SE,135,2.2,6.7,44,0.00,,,0.00,WUHU216HW,2013-02-15 18:40:00,
2013-02-15 10:46:00,63.8,40.8,30.25,East,90,3.5,6.7,43,0.00,,,0.00,WUHU216HW,2013-02-15 18:46:00,
2013-02-15 10:51:00,64.2,41.1,30.25,SSE,158,1.1,4.6,43,0.00,,,0.00,WUHU216HW,2013-02-15 18:51:00,
2013-02-15 10:56:00,64.5,40.8,30.25,SSE,158,4.9,4.9,42,0.00,,,0.00,WUHU216HW,2013-02-15 18:56:00,
2013-02-15 11:01:00,64.9,41.1,30.25,East,90,2.9,4.9,42,0.00,,,0.00,WUHU216HW,2013-02-15 19:01:00,
2013-02-15 11:06:00,65.3,41.5,30.25,ESE,113,2.2,4.9,42,0.00,,,0.00,WUHU216HW,2013-02-15 19:06:00,
2013-02-15 11:11:00,65.4,42.2,30.25,ESE,113,0.0,2.9,43,0.00,,,0.00,WUHU216HW,2013-02-15 19:11:00,
2013-02-15 11:16:00,65.8,42.0,30.25,East,90,2.2,4.4,42,0.00,,,0.00,WUHU216HW,2013-02-15 19:16:00,
2013-02-15 11:21:00,66.0,41.5,30.25,East,90,1.7,4.9,41,0.00,,,0.00,WUHU216HW,2013-02-15 19:21:00,
2013-02-15 11:26:00,66.2,42.3,30.25,East,90,6.4,6.4,42,0.00,,,0.00,WUHU216HW,2013-02-15 19:26:00,
2013-02-15 11:31:00,66.5,42.6,30.25,East,90,0.0,6.4,42,0.00,,,0.00,WUHU216HW,2013-02-15 19:31:00,
2013-02-15 11:36:00,66.7,42.8,30.25,ENE,68,0.0,7.8,42,0.00,,,0.00,WUHU216HW,2013-02-15 19:36:00,
2013-02-15 11:41:00,66.9,43.0,30.25,ESE,113,6.7,7.8,42,0.00,,,0.00,WUHU216HW,2013-02-15 19:41:00,
2013-02-15 11:46:00,67.1,43.1,30.24,SE,135,5.8,6.7,42,0.00,,,0.00,WUHU216HW,2013-02-15 19:46:00,
2013-02-15 11:52:00,67.2,42.7,30.25,East,90,2.4,6.7,41,0.00,,,0.00,WUHU216HW,2013-02-15 19:52:00,
2013-02-15 11:57:00,67.6,43.6,30.24,East,90,0.0,5.8,42,0.00,,,0.00,WUHU216HW,2013-02-15 19:57:00,
2013-02-15 12:02:00,67.8,43.8,30.24,ESE,113,0.8,5.5,42,0.00,,,0.00,WUHU216HW,2013-02-15 20:02:00,
2013-02-15 12:07:00,67.8,43.8,30.24,East,90,1.3,4.4,42,0.00,,,0.00,WUHU216HW,2013-02-15 20:07:00,
2013-02-15 12:12:00,68.1,43.5,30.24,NE,45,0.2,4.4,41,0.00,,,0.00,WUHU216HW,2013-02-15 20:12:00,
2013-02-15 12:17:00,68.1,43.5,30.24,East,90,0.0,5.3,41,0.00,,,0.00,WUHU216HW,2013-02-15 20:17:00,
2013-02-15 12:22:00,68.3,43.7,30.24,ENE,68,1.1,5.3,41,0.00,,,0.00,WUHU216HW,2013-02-15 20:22:00,
2013-02-15 12:27:00,68.5,43.8,30.24,ESE,113,1.7,4.6,41,0.00,,,0.00,WUHU216HW,2013-02-15 20:27:00,
2013-02-15 12:32:00,68.7,44.0,30.24,ESE,113,0.0,1.7,41,0.00,,,0.00,WUHU216HW,2013-02-15 20:32:00,
2013-02-15 12:38:00,69.0,43.7,30.23,East,90,4.6,6.9,40,0.00,,,0.00,WUHU216HW,2013-02-15 20:38:00,
2013-02-15 12:43:00,69.2,43.9,30.23,East,90,0.0,6.9,40,0.00,,,0.00,WUHU216HW,2013-02-15 20:43:00,
2013-02-15 12:48:00,69.4,44.0,30.23,ESE,113,0.0,3.1,40,0.00,,,0.00,WUHU216HW,2013-02-15 20:48:00,
2013-02-15 12:53:00,69.6,44.2,30.23,ENE,68,1.3,3.8,40,0.00,,,0.00,WUHU216HW,2013-02-15 20:53:00,
2013-02-15 12:58:00,69.8,44.4,30.23,ESE,113,1.3,3.8,40,0.00,,,0.00,WUHU216HW,2013-02-15 20:58:00,
2013-02-15 13:03:00,69.9,44.5,30.23,SE,135,5.5,5.5,40,0.00,,,0.00,WUHU216HW,2013-02-15 21:03:00,
2013-02-15 13:08:00,70.1,44.7,30.23,NE,45,3.5,5.5,40,0.00,,,0.00,WUHU216HW,2013-02-15 21:08:00,
2013-02-15 13:13:00,70.3,44.1,30.22,East,90,2.6,6.7,39,0.00,,,0.00,WUHU216HW,2013-02-15 21:13:00,
2013-02-15 13:18:00,70.3,44.1,30.22,ESE,113,3.8,6.7,39,0.00,,,0.00,WUHU216HW,2013-02-15 21:18:00,
2013-02-15 13:23:00,70.3,44.1,30.22,East,90,3.8,3.8,39,0.00,,,0.00,WUHU216HW,2013-02-15 21:23:00,
2013-02-15 13:28:00,70.5,44.3,30.22,East,90,0.0,6.9,39,0.00,,,0.00,WUHU216HW,2013-02-15 21:28:00,
2013-02-15 13:33:00,70.5,44.3,30.22,ENE,68,2.0,6.9,39,0.00,,,0.00,WUHU216HW,2013-02-15 21:33:00,
2013-02-15 13:38:00,70.7,44.4,30.22,East,90,0.0,4.9,39,0.00,,,0.00,WUHU216HW,2013-02-15 21:38:00,
2013-02-15 13:43:00,71.2,44.9,30.22,East,90,1.1,2.0,39,0.00,,,0.00,WUHU216HW,2013-02-15 21:43:00,
2013-02-15 13:48:00,71.2,44.9,30.22,East,90,0.8,6.9,39,0.00,,,0.00,WUHU216HW,2013-02-15 21:48:00,
2013-02-15 13:53:00,71.2,44.9,30.22,East,90,2.9,6.9,39,0.00,,,0.00,WUHU216HW,2013-02-15 21:53:00,
2013-02-15 13:58:00,71.2,44.9,30.22,ESE,113,4.2,4.2,39,0.00,,,0.00,WUHU216HW,2013-02-15 21:58:00,
2013-02-15 14:03:00,71.2,44.9,30.22,ENE,68,0.0,4.2,39,0.00,,,0.00,WUHU216HW,2013-02-15 22:03:00,
2013-02-15 14:08:00,71.2,44.9,30.22,NE,45,4.9,4.9,39,0.00,,,0.00,WUHU216HW,2013-02-15 22:08:00,
2013-02-15 14:14:00,71.4,45.1,30.22,ESE,113,0.8,4.9,39,0.00,,,0.00,WUHU216HW,2013-02-15 22:14:00,
2013-02-15 14:19:00,71.4,45.1,30.22,ESE,113,0.0,3.5,39,0.00,,,0.00,WUHU216HW,2013-02-15 22:19:00,
2013-02-15 14:24:00,71.4,45.1,30.22,East,90,3.1,6.0,39,0.00,,,0.00,WUHU216HW,2013-02-15 22:24:00,
2013-02-15 14:29:00,71.4,45.1,30.21,NE,45,0.0,6.9,39,0.00,,,0.00,WUHU216HW,2013-02-15 22:29:00,
2013-02-15 14:34:00,71.4,45.1,30.21,East,90,4.6,6.9,39,0.00,,,0.00,WUHU216HW,2013-02-15 22:34:00,
2013-02-15 14:39:00,71.4,45.1,30.21,East,90,0.0,5.8,39,0.00,,,0.00,WUHU216HW,2013-02-15 22:39:00,
2013-02-15 14:44:00,71.4,45.1,30.21,ESE,113,2.9,5.8,39,0.00,,,0.00,WUHU216HW,2013-02-15 22:44:00,
2013-02-15 14:49:00,71.6,45.3,30.21,East,90,3.8,4.2,39,0.00,,,0.00,WUHU216HW,2013-02-15 22:49:00,
2013-02-15 14:54:00,71.7,45.4,30.21,NNE,23,6.0,6.0,39,0.00,,,0.00,WUHU216HW,2013-02-15 22:54:00,
2013-02-15 14:59:00,71.4,45.1,30.22,East,90,0.8,9.6,39,0.00,,,0.00,WUHU216HW,2013-02-15 22:59:00,
2013-02-15 15:04:00,71.4,45.1,30.21,East,90,0.0,9.6,39,0.00,,,0.00,WUHU216HW,2013-02-15 23:04:00,
2013-02-15 15:10:00,71.6,45.3,30.21,East,90,1.3,7.3,39,0.00,,,0.00,WUHU216HW,2013-02-15 23:10:00,
2013-02-15 15:15:00,71.4,45.1,30.21,East,90,4.4,7.8,39,0.00,,,0.00,WUHU216HW,2013-02-15 23:15:00,
2013-02-15 15:20:00,71.6,45.3,30.21,ESE,113,0.0,7.8,39,0.00,,,0.00,WUHU216HW,2013-02-15 23:20:00,
2013-02-15 15:25:00,71.6,45.3,30.21,SE,135,4.0,4.0,39,0.00,,,0.00,WUHU216HW,2013-02-15 23:25:00,
2013-02-15 15:30:00,71.6,44.5,30.21,ESE,113,7.8,7.8,38,0.00,,,0.00,WUHU216HW,2013-02-15 23:30:00,
2013-02-15 15:35:00,71.4,45.1,30.21,ESE,113,0.0,7.8,39,0.00,,,0.00,WUHU216HW,2013-02-15 23:35:00,
2013-02-15 15:40:00,71.4,45.1,30.21,ESE,113,3.3,5.5,39,0.00,,,0.00,WUHU216HW,2013-02-15 23:40:00,
2013-02-15 15:45:00,71.4,45.1,30.21,East,90,2.2,5.5,39,0.00,,,0.00,WUHU216HW,2013-02-15 23:45:00,
2013-02-15 15:50:00,71.2,44.9,30.21,SE,135,2.9,5.8,39,0.00,,,0.00,WUHU216HW,2013-02-15 23:50:00,
2013-02-15 15:55:00,71.4,45.1,30.21,East,90,1.7,5.8,39,0.00,,,0.00,WUHU216HW,2013-02-15 23:55:00,
2013-02-15 16:00:00,71.2,44.9,30.21,East,90,2.2,4.0,39,0.00,,,0.00,WUHU216HW,2013-02-16 00:00:00,
2013-02-15 16:05:00,70.8,44.6,30.21,ESE,113,5.1,5.1,39,0.00,,,0.00,WUHU216HW,2013-02-16 00:05:00,
2013-02-15 16:10:00,70.8,44.6,30.20,ENE,68,0.4,5.1,39,0.00,,,0.00,WUHU216HW,2013-02-16 00:10:00,
2013-02-15 16:15:00,70.8,45.3,30.20,SE,135,0.0,2.6,40,0.00,,,0.00,WUHU216HW,2013-02-16 00:15:00,
2013-02-15 16:20:00,70.8,45.3,30.20,ESE,113,0.0,2.6,40,0.00,,,0.00,WUHU216HW,2013-02-16 00:20:00,
2013-02-15 16:25:00,70.7,45.0,30.20,ESE,113,0.0,7.1,40,0.00,,,0.00,WUHU216HW,2013-02-16 00:25:00,
2013-02-15 16:30:00,70.3,44.9,30.20,East,90,0.0,7.1,40,0.00,,,0.00,WUHU216HW,2013-02-16 00:30:00,
2013-02-15 16:35:00,70.3,44.9,30.20,ESE,113,3.1,3.1,40,0.00,,,0.00,WUHU216HW,2013-02-16 00:35:00,
2013-02-15 16:40:00,69.9,44.7,30.20,SE,135,0.0,4.9,40,0.00,,,0.00,WUHU216HW,2013-02-16 00:40:00,
2013-02-15 16:45:00,69.9,44.5,30.20,East,90,2.6,4.9,40,0.00,,,0.00,WUHU216HW,2013-02-16 00:45:00,
2013-02-15 16:50:00,69.6,44.2,30.20,ESE,113,0.0,5.8,40,0.00,,,0.00,WUHU216HW,2013-02-16 00:50:00,
2013-02-15 16:55:00,69.4,44.0,30.20,SE,135,2.4,5.8,40,0.00,,,0.00,WUHU216HW,2013-02-16 00:55:00,
2013-02-15 17:00:00,69.0,44.3,30.20,East,90,4.0,4.0,41,0.00,,,0.00,WUHU216HW,2013-02-16 01:00:00,
2013-02-15 17:05:00,69.0,44.3,30.20,East,90,0.0,4.0,41,0.00,,,0.00,WUHU216HW,2013-02-16 01:05:00,
2013-02-15 17:11:00,68.7,44.2,30.20,ESE,113,7.3,7.3,41,0.00,,,0.00,WUHU216HW,2013-02-16 01:11:00,
2013-02-15 17:16:00,68.7,44.0,30.20,ESE,113,0.0,7.3,41,0.00,,,0.00,WUHU216HW,2013-02-16 01:16:00,
2013-02-15 17:21:00,68.5,43.8,30.20,ESE,113,6.2,7.3,41,0.00,,,0.00,WUHU216HW,2013-02-16 01:21:00,
2013-02-15 17:26:00,67.8,43.2,30.20,ESE,113,2.9,6.2,41,0.00,,,0.00,WUHU216HW,2013-02-16 01:26:00,
2013-02-15 17:31:00,67.8,43.2,30.20,ESE,113,4.4,4.4,41,0.00,,,0.00,WUHU216HW,2013-02-16 01:31:00,
2013-02-15 17:36:00,67.2,42.7,30.20,East,90,0.0,5.5,41,0.00,,,0.00,WUHU216HW,2013-02-16 01:36:00,
2013-02-15 17:41:00,66.9,42.4,30.20,ESE,113,0.0,6.2,41,0.00,,,0.00,WUHU216HW,2013-02-16 01:41:00,
2013-02-15 17:46:00,66.7,42.2,30.20,ENE,68,4.2,6.2,41,0.00,,,0.00,WUHU216HW,2013-02-16 01:46:00,
2013-02-15 17:51:00,66.3,42.5,30.20,NE,45,5.1,5.1,42,0.00,,,0.00,WUHU216HW,2013-02-16 01:51:00,
2013-02-15 17:56:00,66.0,41.5,30.20,ENE,68,0.0,5.1,41,0.00,,,0.00,WUHU216HW,2013-02-16 01:56:00,
2013-02-15 18:01:00,65.8,41.4,30.20,NE,45,5.3,5.3,41,0.00,,,0.00,WUHU216HW,2013-02-16 02:01:00,
2013-02-15 18:06:00,65.4,41.1,30.20,ENE,68,4.6,5.3,41,0.00,,,0.00,WUHU216HW,2013-02-16 02:06:00,
2013-02-15 18:11:00,65.1,40.7,30.20,SE,135,1.1,6.7,41,0.00,,,0.00,WUHU216HW,2013-02-16 02:11:00,
2013-02-15 18:16:00,64.9,40.6,30.20,East,90,6.0,6.7,41,0.00,,,0.00,WUHU216HW,2013-02-16 02:16:00,
2013-02-15 18:21:00,64.7,40.4,30.20,NE,45,0.0,6.0,41,0.00,,,0.00,WUHU216HW,2013-02-16 02:21:00,
2013-02-15 18:26:00,64.5,40.2,30.20,ESE,113,2.0,6.0,41,0.00,,,0.00,WUHU216HW,2013-02-16 02:26:00,
2013-02-15 18:31:00,64.2,39.9,30.20,East,90,0.6,2.0,41,0.00,,,0.00,WUHU216HW,2013-02-16 02:31:00,
2013-02-15 18:36:00,64.2,39.9,30.20,East,90,0.6,2.0,41,0.00,,,0.00,WUHU216HW,2013-02-16 02:36:00,
2013-02-15 18:41:00,64.2,39.8,30.20,East,90,0.0,2.9,41,0.00,,,0.00,WUHU216HW,2013-02-16 02:41:00,
2013-02-15 18:46:00,64.0,39.8,30.20,ESE,113,4.0,4.0,41,0.00,,,0.00,WUHU216HW,2013-02-16 02:46:00,
2013-02-15 18:51:00,63.6,39.4,30.20,East,90,0.8,6.9,41,0.00,,,0.00,WUHU216HW,2013-02-16 02:51:00,
2013-02-15 18:56:00,63.6,40.0,30.20,ESE,113,0.0,6.9,42,0.00,,,0.00,WUHU216HW,2013-02-16 02:56:00,
2013-02-15 19:01:00,63.5,39.3,30.21,East,90,0.0,3.5,41,0.00,,,0.00,WUHU216HW,2013-02-16 03:01:00,
2013-02-15 19:06:00,63.3,39.1,30.21,East,90,1.5,3.5,41,0.00,,,0.00,WUHU216HW,2013-02-16 03:06:00,
2013-02-15 19:11:00,63.3,39.1,30.21,ESE,113,6.4,6.4,41,0.00,,,0.00,WUHU216HW,2013-02-16 03:11:00,
2013-02-15 19:16:00,63.1,38.4,30.21,ESE,113,6.2,6.4,40,0.00,,,0.00,WUHU216HW,2013-02-16 03:16:00,
2013-02-15 19:21:00,63.1,39.0,30.21,ESE,113,0.0,6.2,41,0.00,,,0.00,WUHU216HW,2013-02-16 03:21:00,
2013-02-15 19:26:00,62.9,38.8,30.21,ENE,68,0.0,4.4,41,0.00,,,0.00,WUHU216HW,2013-02-16 03:26:00,
2013-02-15 19:31:00,62.9,38.8,30.21,ESE,113,2.0,4.4,41,0.00,,,0.00,WUHU216HW,2013-02-16 03:31:00,
2013-02-15 19:36:00,62.9,38.2,30.21,East,90,4.2,5.8,40,0.00,,,0.00,WUHU216HW,2013-02-16 03:36:00,
2013-02-15 19:41:00,62.9,38.2,30.21,East,90,0.6,5.8,40,0.00,,,0.00,WUHU216HW,2013-02-16 03:41:00,
2013-02-15 19:46:00,62.9,38.2,30.21,East,90,1.7,4.2,40,0.00,,,0.00,WUHU216HW,2013-02-16 03:46:00,
2013-02-15 19:51:00,62.9,38.2,30.21,East,90,4.0,4.0,40,0.00,,,0.00,WUHU216HW,2013-02-16 03:51:00,
2013-02-15 19:57:00,62.9,38.2,30.21,ENE,68,3.3,5.1,40,0.00,,,0.00,WUHU216HW,2013-02-16 03:57:00,
2013-02-15 20:02:00,62.9,38.1,30.21,East,90,5.5,5.5,40,0.00,,,0.00,WUHU216HW,2013-02-16 04:02:00,
2013-02-15 20:07:00,62.7,37.3,30.21,ENE,68,0.0,5.5,39,0.00,,,0.00,WUHU216HW,2013-02-16 04:07:00,
2013-02-15 20:12:00,62.7,37.3,30.21,ESE,113,0.0,5.5,39,0.00,,,0.00,WUHU216HW,2013-02-16 04:12:00,
2013-02-15 20:17:00,62.7,37.3,30.21,ENE,68,0.0,2.0,39,0.00,,,0.00,WUHU216HW,2013-02-16 04:17:00,
2013-02-15 20:22:00,62.7,37.3,30.21,ESE,113,1.5,5.3,39,0.00,,,0.00,WUHU216HW,2013-02-16 04:22:00,
2013-02-15 20:27:00,62.7,37.3,30.21,ESE,113,2.9,5.3,39,0.00,,,0.00,WUHU216HW,2013-02-16 04:27:00,
2013-02-15 20:32:00,62.4,37.2,30.21,East,90,2.0,4.6,39,0.00,,,0.00,WUHU216HW,2013-02-16 04:32:00,
2013-02-15 20:37:00,62.4,37.0,30.21,East,90,1.1,4.6,39,0.00,,,0.00,WUHU216HW,2013-02-16 04:37:00,
2013-02-15 20:42:00,62.4,37.0,30.21,East,90,2.9,2.9,39,0.00,,,0.00,WUHU216HW,2013-02-16 04:42:00,
2013-02-15 20:47:00,62.4,37.0,30.21,ESE,113,0.0,2.9,39,0.00,,,0.00,WUHU216HW,2013-02-16 04:47:00,
2013-02-15 20:52:00,62.4,37.0,30.21,ESE,113,0.0,3.1,39,0.00,,,0.00,WUHU216HW,2013-02-16 04:52:00,
2013-02-15 20:57:00,62.2,36.8,30.21,East,90,0.0,3.1,39,0.00,,,0.00,WUHU216HW,2013-02-16 04:57:00,
2013-02-15 21:00:00,62.2,36.8,30.22,ESE,113,6.0,6.0,39,0.00,,,0.00,WUHU216HW,2013-02-16 05:00:00,
2013-02-15 21:01:00,62.2,36.8,30.22,ESE,113,6.0,6.0,39,0.00,,,0.00,WUHU216HW,2013-02-16 05:01:00,
2013-02-15 21:06:00,62.2,36.8,30.21,ESE,113,0.4,6.0,39,0.00,,,0.00,WUHU216HW,2013-02-16 05:06:00,
2013-02-15 21:11:00,62.0,36.7,30.22,ESE,113,0.0,2.6,39,0.00,,,0.00,WUHU216HW,2013-02-16 05:11:00,
2013-02-15 21:17:00,61.8,36.5,30.22,SSW,203,1.7,2.6,39,0.00,,,0.00,WUHU216HW,2013-02-16 05:17:00,
2013-02-15 21:22:00,61.7,37.1,30.22,SSW,203,0.0,1.7,40,0.00,,,0.00,WUHU216HW,2013-02-16 05:22:00,
2013-02-15 21:23:00,61.7,37.1,30.22,SSW,203,0.0,1.7,40,0.00,,,0.00,WUHU216HW,2013-02-16 05:23:00,
2013-02-15 21:28:00,61.1,37.2,30.22,SSW,203,0.0,0.0,41,0.00,,,0.00,WUHU216HW,2013-02-16 05:28:00,
2013-02-15 21:33:00,60.9,37.0,30.22,SSW,203,0.0,0.0,41,0.00,,,0.00,WUHU216HW,2013-02-16 05:33:00,
2013-02-15 21:38:00,60.6,37.3,30.22,SSW,203,0.0,0.0,42,0.00,,,0.00,WUHU216HW,2013-02-16 05:38:00,
2013-02-15 21:44:00,60.2,36.9,30.22,SSW,203,0.0,0.0,42,0.00,,,0.00,WUHU216HW,2013-02-16 05:44:00,
2013-02-15 21:49:00,60.0,36.8,30.22,SSW,203,0.0,0.0,42,0.00,,,0.00,WUHU216HW,2013-02-16 05:49:00,
2013-02-15 21:54:00,59.9,36.6,30.22,SSW,203,0.0,0.0,42,0.00,,,0.00,WUHU216HW,2013-02-16 05:54:00,
2013-02-15 21:59:00,59.7,37.0,30.22,SSW,203,0.0,0.0,43,0.00,,,0.00,WUHU216HW,2013-02-16 05:59:00,
2013-02-15 22:04:00,59.5,36.9,30.22,SSW,203,0.0,0.0,43,0.00,,,0.00,WUHU216HW,2013-02-16 06:04:00,
2013-02-15 22:09:00,59.3,36.7,30.22,SSW,203,0.0,0.0,43,0.00,,,0.00,WUHU216HW,2013-02-16 06:09:00,
2013-02-15 22:14:00,59.1,37.1,30.22,SSW,203,0.0,0.0,44,0.00,,,0.00,WUHU216HW,2013-02-16 06:14:00,
2013-02-15 22:19:00,58.8,36.8,30.22,SSW,203,0.0,0.0,44,0.00,,,0.00,WUHU216HW,2013-02-16 06:19:00,
2013-02-15 22:24:00,58.8,36.8,30.22,SSW,203,0.0,0.0,44,0.00,,,0.00,WUHU216HW,2013-02-16 06:24:00,
2013-02-15 22:29:00,58.8,37.4,30.22,SSW,203,0.0,0.0,45,0.00,,,0.00,WUHU216HW,2013-02-16 06:29:00,
2013-02-15 22:34:00,58.4,37.0,30.22,SSW,203,0.0,0.0,45,0.00,,,0.00,WUHU216HW,2013-02-16 06:34:00,
2013-02-15 22:39:00,58.2,36.9,30.22,SSW,203,0.0,0.0,45,0.00,,,0.00,WUHU216HW,2013-02-16 06:39:00,
2013-02-15 22:45:00,57.9,37.1,30.22,SSW,203,0.0,0.0,46,0.00,,,0.00,WUHU216HW,2013-02-16 06:45:00,
2013-02-15 22:50:00,57.7,37.0,30.22,SSW,203,0.0,0.0,46,0.00,,,0.00,WUHU216HW,2013-02-16 06:50:00,
2013-02-15 22:55:00,57.5,36.8,30.22,SSW,203,0.0,0.0,46,0.00,,,0.00,WUHU216HW,2013-02-16 06:55:00,
2013-02-15 23:00:00,57.7,37.0,30.22,SSW,203,0.0,0.0,46,0.00,,,0.00,WUHU216HW,2013-02-16 07:00:00,
2013-02-15 23:05:00,57.5,37.4,30.22,SSW,203,0.0,0.0,47,0.00,,,0.00,WUHU216HW,2013-02-16 07:05:00,
2013-02-15 23:10:00,57.5,37.4,30.22,ESE,113,1.1,1.1,47,0.00,,,0.00,WUHU216HW,2013-02-16 07:10:00,
2013-02-15 23:15:00,57.5,37.4,30.21,ESE,113,0.0,1.1,47,0.00,,,0.00,WUHU216HW,2013-02-16 07:15:00,
2013-02-15 23:20:00,57.5,37.4,30.21,ESE,113,0.0,1.1,47,0.00,,,0.00,WUHU216HW,2013-02-16 07:20:00,
2013-02-15 23:25:00,57.5,37.4,30.22,East,90,0.0,0.0,47,0.00,,,0.00,WUHU216HW,2013-02-16 07:25:00,
2013-02-15 23:30:00,57.7,37.5,30.21,ESE,113,0.0,0.0,47,0.00,,,0.00,WUHU216HW,2013-02-16 07:30:00,
2013-02-15 23:35:00,57.7,38.1,30.22,ESE,113,0.0,0.0,48,0.00,,,0.00,WUHU216HW,2013-02-16 07:35:00,
2013-02-15 23:40:00,57.5,38.0,30.21,ESE,113,0.0,0.0,48,0.00,,,0.00,WUHU216HW,2013-02-16 07:40:00,
2013-02-15 23:45:00,57.3,37.8,30.21,ESE,113,0.0,0.0,48,0.00,,,0.00,WUHU216HW,2013-02-16 07:45:00,
2013-02-15 23:50:00,57.3,38.4,30.21,ESE,113,0.0,0.0,49,0.00,,,0.00,WUHU216HW,2013-02-16 07:50:00,
2013-02-15 23:55:00,57.2,38.2,30.21,ESE,113,0.0,0.0,49,0.00,,,0.00,WUHU216HW,2013-02-16 07:55:00,